Change the Weather History Date:

Monday, January 23, 2012

  Actual Average Record
Temperature  
Mean Temperature 36 °F -  
Max Temperature 41 °F 26 °F 41 °F (1999)
Min Temperature 30 °F 5 °F -16 °F (2004)
Degree Days  
Heating Degree Days 30    
Moisture  
Dew Point 35 °F    
Average Humidity 98    
Maximum Humidity 100    
Minimum Humidity 93    
Precipitation  
Precipitation 0.34 in - - ()
Sea Level Pressure  
Sea Level Pressure 29.40 in    
Wind  
Wind Speed 16 mph (SE)    
Max Wind Speed 24 mph    
Max Gust Speed 34 mph    
Visibility 4 miles    
Events      
Averages and records for this station are not official NWS values.
T = Trace of Precipitation, MM = Missing Value Source: NWS Daily Summary

Daily Weather History Graph

Daily Weather History Graph

Search for Another Location

Airport or City:

Trip Planner

Search our weather history database for the weather conditions in past years. The results will help you decide how hot, cold, wet, or windy it might be!

Date:

Astronomy

Jan. 23, 2012 Rise Set
Actual Time 8:11 AM EST 5:28 PM EST
Civil Twilight 7:38 AM EST 6:01 PM EST
Nautical Twilight 7:01 AM EST 6:38 PM EST
Astronomical Twilight 6:25 AM EST 7:14 PM EST
Moon 8:02 AM EST (1/23) 6:20 PM EST (1/23)
Length of Visible Light 10h 23m
Length of Day
9h 17m
New Moon, 0% of the Moon is Illuminated
Jan 23
New Moon
Jan 30
First Quarter
Feb 7
Full
Feb 14
Last Quarter
Feb 21
New

Hourly Weather History & Observations

Time (EST) Temp. Windchill Dew Point Humidity Pressure Visibility Wind Dir Wind Speed Gust Speed Precip Events Conditions
12:15 AM 30.2 °F 18.9 °F 28.4 °F 93% 29.73 in 6.0 mi SE 16.1 mph - N/A   Overcast
12:35 AM 30.2 °F 18.9 °F 28.4 °F 93% 29.71 in 5.0 mi ESE 16.1 mph - N/A   Overcast
12:55 AM 30.2 °F 17.8 °F 28.4 °F 93% 29.70 in 3.0 mi SE 19.6 mph - N/A   Overcast
1:15 AM 30.2 °F 18.1 °F 30.2 °F 100% 29.68 in 4.0 mi ESE 18.4 mph 23.0 mph N/A   Overcast
1:35 AM 30.2 °F 18.5 °F 30.2 °F 100% 29.67 in 3.0 mi SE 17.3 mph 20.7 mph N/A   Overcast
1:55 AM 30.2 °F 18.9 °F 30.2 °F 100% 29.66 in 3.0 mi SE 16.1 mph - N/A   Overcast
2:15 AM 30.2 °F 19.8 °F 30.2 °F 100% 29.65 in 4.0 mi ESE 13.8 mph - N/A   Overcast
2:35 AM 30.2 °F 18.1 °F 30.2 °F 100% 29.65 in 4.0 mi ESE 18.4 mph 23.0 mph N/A   Overcast
2:55 AM 30.2 °F 18.9 °F 30.2 °F 100% 29.63 in 3.0 mi ESE 16.1 mph - N/A   Overcast
3:15 AM 32.0 °F 21.6 °F 32.0 °F 100% 29.62 in 3.0 mi ESE 15.0 mph - N/A   Overcast
3:35 AM 32.0 °F 21.2 °F 32.0 °F 100% 29.61 in 3.0 mi SE 16.1 mph - N/A   Overcast
3:55 AM 32.0 °F 22.1 °F 30.2 °F 93% 29.59 in 2.5 mi ESE 13.8 mph - N/A   Overcast
4:15 AM 33.8 °F 24.3 °F 33.8 °F 100% 29.58 in 1.8 mi ESE 13.8 mph - N/A   Overcast
4:35 AM 33.8 °F 25.3 °F 33.8 °F 100% 29.53 in 1.2 mi East 11.5 mph - N/A   Overcast
4:55 AM 33.8 °F 25.8 °F 33.8 °F 100% 29.53 in 1.5 mi ESE 10.4 mph - N/A   Overcast
5:15 AM 33.8 °F 25.3 °F 33.8 °F 100% 29.54 in 1.8 mi ESE 11.5 mph - N/A   Overcast
5:35 AM 33.8 °F 24.3 °F 32.0 °F 93% 29.53 in 2.5 mi ESE 13.8 mph - N/A   Overcast
5:55 AM 33.8 °F 24.3 °F 32.0 °F 93% 29.47 in 3.0 mi ENE 13.8 mph - 0.06 in   Overcast
6:15 AM 33.8 °F 22.8 °F 33.8 °F 100% 29.44 in 8.0 mi East 18.4 mph 23.0 mph 0.05 in   Overcast
6:35 AM 35.6 °F 24.8 °F 35.6 °F 100% 29.46 in 4.0 mi ESE 19.6 mph - 0.07 in   Overcast
6:55 AM 35.6 °F 24.0 °F 35.6 °F 100% 29.42 in 8.0 mi ESE 23.0 mph 29.9 mph N/A   Overcast
7:15 AM 35.6 °F 24.2 °F 35.6 °F 100% 29.41 in 10.0 mi ESE 21.9 mph 34.5 mph N/A   Overcast
7:35 AM 35.6 °F 24.2 °F 33.8 °F 93% 29.38 in 5.0 mi East 21.9 mph 28.8 mph 0.04 in   Overcast
7:55 AM 35.6 °F 23.7 °F 35.6 °F 100% 29.34 in 5.0 mi East 24.2 mph 28.8 mph N/A   Overcast
8:15 AM 35.6 °F 24.0 °F 35.6 °F 100% 29.34 in 5.0 mi East 23.0 mph 31.1 mph 0.02 in   Overcast
8:35 AM 35.6 °F 24.2 °F 35.6 °F 100% 29.32 in 5.0 mi East 21.9 mph 28.8 mph N/A   Overcast
8:55 AM 35.6 °F 24.2 °F 33.8 °F 93% 29.35 in 5.0 mi ESE 21.9 mph 29.9 mph 0.06 in   Overcast
9:15 AM 35.6 °F 24.0 °F 35.6 °F 100% 29.34 in 5.0 mi ESE 23.0 mph 27.6 mph 0.03 in   Overcast
9:35 AM 37.4 °F 26.9 °F 35.6 °F 93% 29.33 in 6.0 mi SE 20.7 mph - 0.05 in   Overcast
9:55 AM 37.4 °F 27.5 °F 35.6 °F 93% 29.33 in 6.0 mi SE 18.4 mph - 0.07 in   Overcast
10:15 AM 37.4 °F 27.2 °F 37.4 °F 100% 29.33 in 4.0 mi SE 19.6 mph - 0.01 in   Overcast
10:35 AM 37.4 °F 27.8 °F 37.4 °F 100% 29.33 in 5.0 mi SE 17.3 mph - 0.01 in   Overcast
10:55 AM 37.4 °F 27.8 °F 35.6 °F 93% 29.33 in 5.0 mi SE 17.3 mph - 0.02 in   Overcast
11:15 AM 37.4 °F 29.8 °F 35.6 °F 93% 29.32 in 6.0 mi SE 11.5 mph - N/A   Overcast
11:35 AM 37.4 °F 29.3 °F 37.4 °F 100% 29.31 in 5.0 mi SSE 12.7 mph - N/A   Overcast
11:55 AM 37.4 °F 28.9 °F 37.4 °F 100% 29.30 in 3.0 mi SE 13.8 mph - N/A   Overcast
12:15 PM 37.4 °F 27.8 °F 37.4 °F 100% 29.29 in 5.0 mi SE 17.3 mph - N/A   Overcast
12:35 PM 39.2 °F 31.2 °F 39.2 °F 100% 29.28 in 2.5 mi SE 13.8 mph - N/A   Overcast
12:55 PM 39.2 °F 31.2 °F 39.2 °F 100% 29.27 in 2.5 mi SE 13.8 mph - N/A   Overcast
1:15 PM 39.2 °F 31.2 °F 39.2 °F 100% 29.26 in 0.8 mi SE 13.8 mph - N/A   Overcast
1:35 PM 39.2 °F 31.6 °F 37.4 °F 93% 29.25 in 1.0 mi SE 12.7 mph - N/A   Overcast
1:55 PM 39.2 °F 32.0 °F 39.2 °F 100% 29.24 in 0.8 mi SE 11.5 mph - N/A   Overcast
2:15 PM 39.2 °F 32.0 °F 37.4 °F 93% 29.24 in 0.2 mi SE 11.5 mph - N/A   Overcast
2:35 PM 39.2 °F 31.6 °F 37.4 °F 93% 29.23 in 0.2 mi ESE 12.7 mph - N/A   Overcast
2:55 PM 39.2 °F 31.6 °F 39.2 °F 100% 29.22 in 0.2 mi SE 12.7 mph - N/A   Overcast
3:15 PM 39.2 °F 30.8 °F 39.2 °F 100% 29.22 in 1.0 mi SE 15.0 mph - N/A   Overcast
3:35 PM 39.2 °F 30.8 °F 39.2 °F 100% 29.21 in 0.5 mi SE 15.0 mph - N/A   Overcast
3:55 PM 39.2 °F 32.5 °F 39.2 °F 100% 29.21 in 0.2 mi SSE 10.4 mph - N/A   Overcast
4:15 PM 39.2 °F 32.0 °F 39.2 °F 100% 29.21 in 0.2 mi SSE 11.5 mph - N/A   Overcast
4:35 PM 39.2 °F 31.2 °F 39.2 °F 100% 29.21 in 0.5 mi SSE 13.8 mph - 0.01 in   Overcast
4:55 PM 41.0 °F 34.3 °F 41.0 °F 100% 29.23 in 3.0 mi SSW 11.5 mph 18.4 mph 0.01 in   Overcast
5:15 PM 39.2 °F 32.5 °F 37.4 °F 93% 29.24 in 2.5 mi SSW 10.4 mph 16.1 mph N/A   Overcast
5:35 PM 37.4 °F 30.3 °F 37.4 °F 100% 29.24 in 2.0 mi SSW 10.4 mph 16.1 mph 0.01 in   Overcast
5:55 PM 37.4 °F 31.4 °F 37.4 °F 100% 29.26 in 9.0 mi SW 8.1 mph 18.4 mph 0.01 in   Overcast
6:15 PM 35.6 °F 28.0 °F 33.8 °F 93% 29.27 in 10.0 mi SW 10.4 mph 16.1 mph N/A   Overcast
6:35 PM 35.6 °F 27.5 °F 35.6 °F 100% 29.29 in 10.0 mi WSW 11.5 mph 18.4 mph N/A   Overcast
6:55 PM 33.8 °F 24.8 °F 33.8 °F 100% 29.31 in 10.0 mi WSW 12.7 mph 18.4 mph N/A   Overcast
7:15 PM 33.8 °F 26.4 °F 33.8 °F 100% 29.33 in 10.0 mi WSW 9.2 mph - N/A   Overcast
7:35 PM 33.8 °F 27.0 °F 33.8 °F 100% 29.34 in 10.0 mi WSW 8.1 mph - N/A   Overcast
7:55 PM 33.8 °F 26.4 °F 33.8 °F 100% 29.35 in 9.0 mi WSW 9.2 mph - N/A   Overcast
8:15 PM 33.8 °F 24.8 °F 33.8 °F 100% 29.36 in 10.0 mi WSW 12.7 mph 17.3 mph N/A   Overcast
8:35 PM 33.8 °F 25.3 °F 32.0 °F 93% 29.37 in 10.0 mi West 11.5 mph - N/A   Overcast
8:55 PM 33.8 °F 24.8 °F 33.8 °F 100% 29.38 in 10.0 mi West 12.7 mph - N/A   Overcast
9:15 PM 33.8 °F 27.0 °F 33.8 °F 100% 29.40 in 8.0 mi West 8.1 mph - N/A   Overcast
9:35 PM 33.8 °F 24.3 °F 33.8 °F 100% 29.41 in 3.0 mi West 13.8 mph 17.3 mph N/A   Overcast
9:55 PM 33.8 °F 26.4 °F 33.8 °F 100% 29.42 in 6.0 mi WSW 9.2 mph - N/A   Overcast
10:15 PM 33.8 °F 24.3 °F 33.8 °F 100% 29.43 in 2.5 mi West 13.8 mph 17.3 mph N/A   Overcast
10:35 PM 32.0 °F 24.2 °F 32.0 °F 100% 29.44 in 10.0 mi West 9.2 mph - N/A   Overcast
10:55 PM 32.0 °F 21.6 °F 30.2 °F 93% 29.45 in 10.0 mi West 15.0 mph 21.9 mph N/A   Overcast
11:15 PM 30.2 °F 20.2 °F 30.2 °F 100% 29.46 in 10.0 mi West 12.7 mph 24.2 mph N/A   Overcast
11:35 PM 30.2 °F 20.8 °F 28.4 °F 93% 29.48 in 10.0 mi West 11.5 mph 19.6 mph N/A   Overcast
11:55 PM 30.2 °F 19.3 °F 28.4 °F 93% 29.48 in 10.0 mi West 15.0 mph - N/A   Overcast